YO2LDK-13 Weather Reports


time (UTC)temp
C
wind
direction
speed
KPH
gust
KPH
rain 1hr
cm
rain 24hr
cm
rain mn
cm
humidity
%
barometer
mb
20260510153519 25 305 0.0 0.0 0.00 0.00 0.00 38 1001.0
20260510153019 25 305 3.2 3.2 0.00 0.00 0.00 37 1001.0
20260510152519 26 305 0.0 0.0 0.00 0.00 0.00 36 1001.4
20260510152019 26 306 0.0 0.0 0.00 0.00 0.00 39 1001.0
20260510151519 25 306 0.0 0.0 0.00 0.00 0.00 38 1001.0
20260510151019 25 306 0.0 0.0 0.00 0.00 0.00 38 1001.4
20260510150519 25 306 0.0 0.0 0.00 0.00 0.00 38 1001.0
20260510150021 25 306 3.2 3.2 0.00 0.00 0.00 38 1001.4
20260510145522 25 324 0.0 0.0 0.00 0.00 0.00 38 1001.4
20260510145020 25 276 1.6 1.6 0.00 0.00 0.00 36 1001.4
20260510144519 27 264 0.0 0.0 0.00 0.00 0.00 35 1001.0
20260510144019 26 34 3.2 3.2 0.00 0.00 0.00 34 1001.4
20260510143519 25 0 3.2 3.2 0.00 0.00 0.00 36 1001.7
20260510143019 25 294 3.2 3.2 0.00 0.00 0.00 37 1001.7
20260510142519 26 278 6.4 6.4 0.00 0.00 0.00 36 1001.7
20260510142019 26 72 3.2 3.2 0.00 0.00 0.00 37 1001.4
20260510141520 25 276 3.2 3.2 0.00 0.00 0.00 36 1001.7
20260510141019 25 276 0.0 0.0 0.00 0.00 0.00 37 1001.7
20260510140519 25 300 4.8 4.8 0.00 0.00 0.00 37 1001.7
20260510140020 26 288 3.2 3.2 0.00 0.00 0.00 37 1001.7
20260510135521 25 283 0.0 0.0 0.00 0.00 0.00 38 1001.7
20260510135020 25 283 3.2 3.2 0.00 0.00 0.00 38 1001.7
20260510134519 26 12 0.0 0.0 0.00 0.00 0.00 37 1001.7
20260510134019 26 12 0.0 0.0 0.00 0.00 0.00 38 1001.7
20260510133523 25 8 0.0 0.0 0.00 0.00 0.00 39 1001.7
20260510133019 25 46 1.6 1.6 0.00 0.00 0.00 37 1001.7
20260510132520 25 46 0.0 0.0 0.00 0.00 0.00 38 1002.0
20260510132019 26 46 0.0 0.0 0.00 0.00 0.00 38 1002.0
20260510131519 26 46 0.0 0.0 0.00 0.00 0.00 36 1002.0
20260510131019 26 46 0.0 0.0 0.00 0.00 0.00 38 1002.4
20260510130521 25 46 0.0 0.0 0.00 0.00 0.00 38 1002.4
20260510130020 25 36 0.0 0.0 0.00 0.00 0.00 37 1002.4
20260510125520 25 30 0.0 0.0 0.00 0.00 0.00 38 1002.4
20260510125019 26 30 0.0 0.0 0.00 0.00 0.00 37 1002.4
20260510124519 25 30 0.0 0.0 0.00 0.00 0.00 37 1002.4
20260510124021 25 30 0.0 0.0 0.00 0.00 0.00 38 1002.4
20260510123519 25 42 3.2 3.2 0.00 0.00 0.00 36 1002.4
20260510123019 26 41 0.0 0.0 0.00 0.00 0.00 36 1002.7
20260510122521 25 36 1.6 1.6 0.00 0.00 0.00 34 1002.7
20260510122020 25 288 3.2 3.2 0.00 0.00 0.00 35 1002.7
20260510121519 25 288 1.6 1.6 0.00 0.00 0.00 35 1002.4
20260510121019 25 283 3.2 3.2 0.00 0.00 0.00 36 1002.7
20260510120520 26 276 4.8 4.8 0.00 0.00 0.00 36 1002.7
20260510120020 26 42 4.8 6.4 0.00 0.00 0.00 34 1002.7
20260510115519 26 265 0.0 0.0 0.00 0.00 0.00 34 1002.7
20260510115019 27 261 3.2 3.2 0.00 0.00 0.00 32 1002.7
20260510114521 27 24 3.2 3.2 0.00 0.00 0.00 34 1002.7
20260510114020 26 300 3.2 3.2 0.00 0.00 0.00 34 1003.0
20260510113520 26 61 4.8 4.8 0.00 0.00 0.00 35 1003.0
20260510113020 27 36 0.0 0.0 0.00 0.00 0.00 33 1003.0
20260510112519 27 288 3.2 3.2 0.00 0.00 0.00 33 1003.0
20260510112021 26 49 3.2 3.2 0.00 0.00 0.00 35 1003.0
20260510111520 26 49 0.0 0.0 0.00 0.00 0.00 35 1003.0
20260510111019 26 78 4.8 6.4 0.00 0.00 0.00 36 1003.0
20260510110519 25 60 0.0 0.0 0.00 0.00 0.00 40 1003.4
20260510110019 26 292 3.2 3.2 0.00 0.00 0.00 39 1003.4
20260510105520 25 36 0.0 0.0 0.00 0.00 0.00 39 1003.7
20260510105020 25 39 3.2 3.2 0.00 0.00 0.00 40 1003.4
20260510104519 26 39 4.8 6.4 0.00 0.00 0.00 38 1003.7
20260510104020 25 34 0.0 0.0 0.00 0.00 0.00 39 1003.7
20260510103520 25 24 0.0 0.0 0.00 0.00 0.00 41 1003.4
20260510103020 26 35 3.2 3.2 0.00 0.00 0.00 39 1003.7
20260510102519 26 0 0.0 0.0 0.00 0.00 0.00 40 1003.7
20260510102019 26 42 3.2 3.2 0.00 0.00 0.00 39 1003.7
20260510101520 25 18 3.2 3.2 0.00 0.00 0.00 39 1003.7
20260510101020 25 45 0.0 0.0 0.00 0.00 0.00 44 1004.1
20260510100519 25 45 3.2 3.2 0.00 0.00 0.00 46 1004.1
20260510100020 25 348 0.0 0.0 0.00 0.00 0.00 43 1004.1
20260510095519 25 30 0.0 0.0 0.00 0.00 0.00 45 1004.1
20260510095020 25 30 3.2 3.2 0.00 0.00 0.00 46 1004.1
20260510094519 25 282 0.0 0.0 0.00 0.00 0.00 47 1004.4
20260510094019 25 282 6.4 6.4 0.00 0.00 0.00 46 1004.4
20260510093519 25 312 0.0 0.0 0.00 0.00 0.00 48 1004.4
20260510093019 25 324 0.0 0.0 0.00 0.00 0.00 47 1004.4
20260510092519 25 299 0.0 0.0 0.00 0.00 0.00 47 1004.7
20260510092020 24 288 0.0 0.0 0.00 0.00 0.00 50 1004.4
20260510091519 25 266 3.2 3.2 0.00 0.00 0.00 49 1004.7
20260510091019 25 42 0.0 0.0 0.00 0.00 0.00 49 1004.7
20260510090522 24 36 3.2 3.2 0.00 0.00 0.00 50 1004.7
20260510090019 24 36 3.2 3.2 0.00 0.00 0.00 51 1004.7
20260510085519 23 288 0.0 0.0 0.00 0.00 0.00 53 1004.7
20260510085019 23 288 4.8 4.8 0.00 0.00 0.00 52 1004.7
20260510084519 23 300 0.0 0.0 0.00 0.00 0.00 51 1005.1
20260510084020 23 318 3.2 3.2 0.00 0.00 0.00 54 1005.1
20260510083519 23 48 0.0 0.0 0.00 0.00 0.00 53 1004.7
20260510083019 23 30 0.0 0.0 0.00 0.00 0.00 53 1004.7
20260510082520 23 30 0.0 0.0 0.00 0.00 0.00 54 1005.1
20260510082019 23 54 3.2 3.2 0.00 0.00 0.00 55 1005.1
20260510081519 22 330 0.0 0.0 0.00 0.00 0.00 56 1005.1
20260510081019 22 42 4.8 4.8 0.00 0.00 0.00 55 1005.1
20260510080520 22 294 3.2 3.2 0.00 0.00 0.00 58 1005.1
20260510080019 22 36 4.8 4.8 0.00 0.00 0.00 59 1005.1
20260510075519 22 282 3.2 3.2 0.00 0.00 0.00 59 1005.1
20260510075020 22 12 0.0 0.0 0.00 0.00 0.00 59 1005.1
20260510074519 21 270 4.8 4.8 0.00 0.00 0.00 60 1005.1
20260510074019 21 288 0.0 0.0 0.00 0.00 0.00 60 1005.1
20260510073520 21 300 0.0 0.0 0.00 0.00 0.00 62 1005.1
20260510073019 21 292 3.2 3.2 0.00 0.00 0.00 63 1005.1
20260510072519 21 306 3.2 3.2 0.00 0.00 0.00 64 1005.1
20260510072019 21 42 0.0 0.0 0.00 0.00 0.00 65 1005.1
20260510071520 20 48 3.2 3.2 0.00 0.00 0.00 64 1005.1
20260510071019 20 330 3.2 3.2 0.00 0.00 0.00 65 1005.1
20260510070519 20 288 0.0 0.0 0.00 0.00 0.00 67 1005.1
20260510070021 20 42 3.2 3.2 0.00 0.00 0.00 67 1005.1
20260510065523 19 310 0.0 0.0 0.00 0.00 0.00 69 1005.1
20260510065019 19 336 0.0 0.0 0.00 0.00 0.00 68 1005.1
20260510064519 19 62 0.0 0.0 0.00 0.00 0.00 69 1005.1
20260510064019 18 288 3.2 3.2 0.00 0.00 0.00 71 1005.1
20260510063519 18 288 1.6 1.6 0.00 0.00 0.00 72 1005.4
20260510063019 18 283 0.0 0.0 0.00 0.00 0.00 73 1005.1
20260510062519 18 54 1.6 1.6 0.00 0.00 0.00 72 1005.1
20260510062021 18 54 0.0 0.0 0.00 0.00 0.00 72 1005.4
20260510061520 17 54 3.2 3.2 0.00 0.00 0.00 74 1005.1
20260510061019 17 54 0.0 0.0 0.00 0.00 0.00 75 1005.4
20260510060519 17 283 0.0 0.0 0.00 0.00 0.00 77 1005.4
20260510060019 17 283 1.6 1.6 0.00 0.00 0.00 78 1005.4
20260510055519 16 283 0.0 0.0 0.00 0.00 0.00 79 1005.4
20260510055019 16 282 3.2 3.2 0.00 0.00 0.00 81 1005.4
20260510054520 15 282 3.2 3.2 0.00 0.00 0.00 83 1005.4
20260510054019 15 282 3.2 3.2 0.00 0.00 0.00 84 1005.1
20260510053520 14 282 0.0 0.0 0.00 0.00 0.00 85 1005.1
20260510053020 14 288 3.2 3.2 0.00 0.00 0.00 86 1005.1
20260510052519 13 312 3.2 3.2 0.00 0.00 0.00 87 1005.1
20260510052019 13 312 1.6 1.6 0.00 0.00 0.00 88 1005.1
20260510051520 13 318 3.2 3.2 0.00 0.00 0.00 89 1005.1
20260510051020 13 318 4.8 4.8 0.00 0.00 0.00 90 1005.4
20260510050519 13 318 0.0 0.0 0.00 0.00 0.00 89 1005.4
20260510050019 13 318 0.0 0.0 0.00 0.00 0.00 90 1005.4
20260510045519 12 318 3.2 3.2 0.00 0.00 0.00 90 1005.4
20260510045020 12 318 3.2 3.2 0.00 0.00 0.00 90 1005.1
20260510044519 12 318 3.2 3.2 0.00 0.00 0.00 91 1005.4
20260510044020 11 318 0.0 0.0 0.00 0.00 0.00 91 1005.4
20260510043520 11 330 0.0 0.0 0.00 0.00 0.00 91 1005.1
20260510043020 11 330 3.2 3.2 0.00 0.00 0.00 91 1005.4
20260510042519 11 330 0.0 0.0 0.00 0.00 0.00 92 1005.4
20260510042019 11 330 0.0 0.0 0.00 0.00 0.00 92 1005.1
20260510041521 10 330 0.0 0.0 0.00 0.00 0.00 93 1005.1
20260510041019 10 330 0.0 0.0 0.00 0.00 0.00 94 1005.1
20260510040519 10 330 0.0 0.0 0.00 0.00 0.00 94 1005.1
20260510040019 10 330 0.0 0.0 0.00 0.00 0.00 94 1005.4
20260510035519 10 330 0.0 0.0 0.00 0.00 0.00 94 1005.1
20260510035019 10 330 0.0 0.0 0.00 0.00 0.00 94 1005.1
20260510034519 10 330 0.0 0.0 0.00 0.00 0.00 95 1005.1
20260510034019 10 330 0.0 0.0 0.00 0.00 0.00 95 1005.1
20260510033520 10 330 0.0 0.0 0.00 0.00 0.00 95 1005.1
20260510033020 10 330 0.0 0.0 0.00 0.00 0.00 94 1005.1
20260510032519 10 330 0.0 0.0 0.00 0.00 0.00 94 1005.1
20260510032019 10 330 0.0 0.0 0.00 0.00 0.00 94 1005.4
20260510031519 10 330 0.0 0.0 0.00 0.00 0.00 94 1005.1
20260510031020 10 330 0.0 0.0 0.00 0.00 0.00 93 1005.1
20260510030521 10 330 0.0 0.0 0.00 0.00 0.00 93 1005.1
20260510030020 10 330 0.0 0.0 0.00 0.00 0.00 93 1005.1
20260510025519 10 330 0.0 0.0 0.00 0.00 0.00 93 1005.1
20260510025019 10 330 0.0 0.0 0.00 0.00 0.00 94 1005.1
20260510024519 11 330 0.0 0.0 0.00 0.00 0.00 93 1005.1
20260510024019 11 330 0.0 0.0 0.00 0.00 0.00 93 1005.1
20260510023519 11 330 0.0 0.0 0.00 0.00 0.00 92 1005.1
20260510023019 11 330 0.0 0.0 0.00 0.00 0.00 91 1005.1
20260510022522 11 330 0.0 0.0 0.00 0.00 0.00 92 1005.1
20260510022021 11 330 0.0 0.0 0.00 0.00 0.00 92 1005.1
20260510021519 11 330 0.0 0.0 0.00 0.00 0.00 92 1005.1
20260510021019 11 330 0.0 0.0 0.00 0.00 0.00 91 1005.1
20260510020519 12 330 0.0 0.0 0.00 0.00 0.00 91 1005.1
20260510020019 12 330 0.0 0.0 0.00 0.00 0.00 90 1005.1
20260510015521 12 330 0.0 0.0 0.00 0.00 0.00 89 1005.1
20260510015020 12 330 0.0 0.0 0.00 0.00 0.00 88 1005.1
20260510014519 13 330 0.0 0.0 0.00 0.00 0.00 87 1005.1
20260510014020 13 330 3.2 3.2 0.00 0.00 0.00 85 1005.1
20260510013519 13 48 0.0 0.0 0.00 0.00 0.00 84 1005.1
20260510013021 13 48 0.0 0.0 0.00 0.00 0.00 85 1005.1
20260510012519 13 48 0.0 0.0 0.00 0.00 0.00 84 1005.1
20260510012019 14 48 0.0 0.0 0.00 0.00 0.00 82 1005.1
20260510011519 14 48 0.0 0.0 0.00 0.00 0.00 82 1005.1
20260510011020 14 48 0.0 0.0 0.00 0.00 0.00 81 1005.1
20260510010519 15 48 0.0 0.0 0.00 0.00 0.00 81 1005.1
20260510010021 15 48 0.0 0.0 0.00 0.00 0.00 81 1005.1
20260510005519 15 48 0.0 0.0 0.00 0.00 0.00 80 1005.1
20260510005019 15 48 0.0 0.0 0.00 0.00 0.00 80 1005.1
20260510004519 15 48 0.0 0.0 0.00 0.00 0.00 80 1005.1
20260510004020 14 48 0.0 0.0 0.00 0.00 0.00 81 1004.7
20260510003520 14 48 0.0 0.0 0.00 0.00 0.00 82 1005.1
20260510003021 14 48 0.0 0.0 0.00 0.00 0.00 83 1005.1
20260510002519 14 48 0.0 0.0 0.00 0.00 0.00 84 1004.7
20260510002020 14 48 0.0 0.0 0.00 0.00 0.00 84 1004.7
20260510001521 14 48 0.0 0.0 0.00 0.00 0.00 84 1005.1
20260510001019 15 48 0.0 0.0 0.00 0.00 0.00 82 1005.1
20260510000519 15 48 0.0 0.0 0.00 0.00 0.00 81 1005.1
20260510000019 15 48 0.0 0.0 0.00 0.00 0.00 82 1005.1
20260509235520 15 48 0.0 0.0 0.00 0.00 0.00 81 1005.1
20260509235019 15 48 0.0 0.0 0.00 0.00 0.00 81 1005.1
20260509234520 15 48 0.0 0.0 0.00 0.00 0.00 81 1005.1
20260509234019 15 48 0.0 0.0 0.00 0.00 0.00 81 1005.1
20260509233520 15 48 3.2 3.2 0.00 0.00 0.00 81 1005.4
20260509233019 15 48 0.0 0.0 0.00 0.00 0.00 81 1005.4
20260509232519 15 48 0.0 0.0 0.00 0.00 0.00 82 1005.1
20260509232019 14 48 1.6 1.6 0.00 0.00 0.00 83 1005.4
20260509231519 14 48 0.0 0.0 0.00 0.00 0.00 84 1005.1
20260509231019 14 48 0.0 0.0 0.00 0.00 0.00 84 1005.1
20260509230519 14 48 0.0 0.0 0.00 0.00 0.00 84 1005.4
20260509230019 14 48 0.0 0.0 0.00 0.00 0.00 84 1005.4
20260509225519 14 48 0.0 0.0 0.00 0.00 0.00 84 1005.4
20260509225019 14 48 0.0 0.0 0.00 0.00 0.00 83 1005.4
20260509224519 15 48 0.0 0.0 0.00 0.00 0.00 83 1005.4
20260509224020 14 48 1.6 1.6 0.00 0.00 0.00 83 1005.4
20260509223520 15 48 0.0 0.0 0.00 0.00 0.00 83 1005.4
20260509223019 15 48 0.0 0.0 0.00 0.00 0.00 83 1005.4
20260509222519 14 48 0.0 0.0 0.00 0.00 0.00 82 1005.4
20260509222020 14 48 3.2 3.2 0.00 0.00 0.00 82 1005.1
20260509221520 14 48 0.0 0.0 0.00 0.00 0.00 83 1005.4
20260509221019 14 48 0.0 0.0 0.00 0.00 0.00 83 1005.4
20260509220520 14 48 0.0 0.0 0.00 0.00 0.00 83 1005.4
20260509220020 14 48 0.0 0.0 0.00 0.00 0.00 83 1005.4
20260509215519 14 48 0.0 0.0 0.00 0.00 0.00 83 1005.4
20260509215019 14 48 0.0 0.0 0.00 0.00 0.00 84 1005.4
20260509214521 14 48 0.0 0.0 0.00 0.00 0.00 84 1005.4
20260509214019 14 48 0.0 0.0 0.00 0.00 0.00 84 1005.8
20260509213519 14 48 0.0 0.0 0.00 0.00 0.00 84 1005.4
20260509213021 14 48 0.0 0.0 0.00 0.00 0.00 85 1005.8
20260509212519 14 288 0.0 0.0 0.00 0.00 0.00 86 1005.8
20260509212020 14 288 0.0 0.0 0.00 0.00 0.00 86 1005.8
20260509211520 14 288 0.0 0.0 0.00 0.00 0.00 85 1005.8
20260509211019 15 288 0.0 0.0 0.00 0.00 0.00 85 1005.4
20260509210520 15 288 0.0 0.0 0.00 0.00 0.00 85 1005.8
20260509210020 15 288 0.0 0.0 0.00 0.00 0.00 85 1005.8
20260509205521 15 288 0.0 0.0 0.00 0.00 0.00 85 1005.8
20260509205019 15 288 0.0 0.0 0.00 0.00 0.00 85 1005.8
20260509204519 15 288 0.0 0.0 0.00 0.00 0.00 84 1005.8
20260509204019 15 288 0.0 0.0 0.00 0.00 0.00 83 1005.4
20260509203519 15 288 0.0 0.0 0.00 0.00 0.00 83 1005.8
20260509203021 15 288 0.0 0.0 0.00 0.00 0.00 83 1005.8
20260509202519 15 288 0.0 0.0 0.00 0.00 0.00 83 1005.8
20260509202019 16 288 0.0 0.0 0.00 0.00 0.00 82 1005.8
20260509201520 16 288 0.0 0.0 0.00 0.00 0.00 82 1005.8
20260509201019 16 288 0.0 0.0 0.00 0.00 0.00 82 1005.8
20260509200519 16 288 0.0 0.0 0.00 0.00 0.00 82 1005.8
20260509200019 16 288 0.0 0.0 0.00 0.00 0.00 81 1005.8
20260509195520 16 288 0.0 0.0 0.00 0.00 0.00 81 1005.8
20260509195021 16 288 0.0 0.0 0.00 0.00 0.00 82 1005.8
20260509194519 16 288 0.0 0.0 0.00 0.00 0.00 81 1005.8
20260509194019 16 288 3.2 3.2 0.00 0.00 0.00 80 1006.1
20260509193519 16 288 0.0 0.0 0.00 0.00 0.00 80 1006.1
20260509193019 16 288 0.0 0.0 0.00 0.00 0.00 79 1005.8
20260509192519 17 288 0.0 0.0 0.00 0.00 0.00 79 1006.1
20260509192019 17 288 0.0 0.0 0.00 0.00 0.00 78 1005.8
20260509191519 17 288 0.0 0.0 0.00 0.00 0.00 78 1005.4
20260509191019 17 288 0.0 0.0 0.00 0.00 0.00 78 1005.4
20260509190519 17 288 0.0 0.0 0.00 0.00 0.00 77 1005.4
20260509190019 17 288 0.0 0.0 0.00 0.00 0.00 76 1005.4
20260509185519 17 288 0.0 0.0 0.00 0.00 0.00 75 1005.4
20260509185020 18 288 0.0 0.0 0.00 0.00 0.00 74 1005.4
20260509184519 18 288 0.0 0.0 0.00 0.00 0.00 74 1005.4
20260509184020 18 288 0.0 0.0 0.00 0.00 0.00 73 1005.1
20260509183519 18 288 0.0 0.0 0.00 0.00 0.00 72 1005.1
20260509183020 18 288 0.0 0.0 0.00 0.00 0.00 71 1005.1
20260509182519 18 288 0.0 0.0 0.00 0.00 0.00 70 1005.1
20260509182020 18 288 0.0 0.0 0.00 0.00 0.00 70 1005.1
20260509181519 19 288 0.0 0.0 0.00 0.00 0.00 69 1004.7
20260509181020 19 288 0.0 0.0 0.00 0.00 0.00 68 1004.7
20260509180521 19 288 0.0 0.0 0.00 0.00 0.00 67 1004.7
20260509180019 20 288 0.0 0.0 0.00 0.00 0.00 67 1004.7
20260509175520 20 288 0.0 0.0 0.00 0.00 0.00 65 1005.1
20260509175020 20 288 0.0 0.0 0.00 0.00 0.00 64 1004.7
20260509174519 20 288 3.2 3.2 0.00 0.00 0.00 64 1004.4
20260509174019 20 288 0.0 0.0 0.00 0.00 0.00 63 1004.7
20260509173520 20 288 0.0 0.0 0.00 0.00 0.00 61 1004.4
20260509173020 21 292 0.0 0.0 0.00 0.00 0.00 60 1004.7
20260509172521 21 292 0.0 0.0 0.00 0.00 0.00 59 1004.7
20260509172029 21 288 0.0 0.0 0.00 0.00 0.00 58 1004.4
20260509171520 21 288 3.2 3.2 0.00 0.00 0.00 57 1004.4
20260509171020 21 288 0.0 0.0 0.00 0.00 0.00 56 1004.4
20260509170520 21 288 3.2 3.2 0.00 0.00 0.00 55 1004.4
20260509170021 22 270 0.0 0.0 0.00 0.00 0.00 52 1004.4
20260509165521 22 210 0.0 0.0 0.00 0.00 0.00 49 1004.1
20260509165019 22 210 0.0 0.0 0.00 0.00 0.00 48 1004.4
20260509164520 23 210 0.0 0.0 0.00 0.00 0.00 47 1004.1
20260509164020 23 210 0.0 0.0 0.00 0.00 0.00 46 1004.1
20260509163519 23 210 0.0 0.0 0.00 0.00 0.00 45 1004.4
20260509163020 23 210 0.0 0.0 0.00 0.00 0.00 45 1004.1
20260509162039 23 210 0.0 0.0 0.00 0.00 0.00 45 1004.1
20260509161519 23 210 0.0 0.0 0.00 0.00 0.00 45 1004.1
20260509161019 23 210 0.0 0.0 0.00 0.00 0.00 44 1004.4
20260509160519 23 210 0.0 0.0 0.00 0.00 0.00 44 1004.1
20260509160019 23 210 0.0 0.0 0.00 0.00 0.00 43 1004.1
20260509155519 24 210 0.0 0.0 0.00 0.00 0.00 42 1004.1
20260509155020 24 210 0.0 0.0 0.00 0.00 0.00 42 1004.1
20260509154519 24 180 0.0 0.0 0.00 0.00 0.00 42 1004.1
20260509154019 25 180 0.0 0.0 0.00 0.00 0.00 41 1004.1